When you browse on this site, cookies collect data to enhance your experience and personalize the content and advertising you see.
Visit our Privacy Policy to learn more. By continuing to use the site, you agree to this use of cookies and data.
  • In Lithuania
  • List of Countries
  • For 7 days
  • Water Temperature
  • Weather Map
  • Weather Widgets
  • user-avatar
    Login

    Hourly Weather Ostrov

    Today, 10 December, Tuesday

    Time Temperature Precipitation Wind Pressure Humidity
    00:00 +1°C° 0.4 mm 5 mps 719 mmHg 92%
    01:00 +1°C° 0.4 mm 5 mps 720 mmHg 94%
    02:00 +1°C° 0.2 mm 5 mps 721 mmHg 91%
    03:00 0°C° 0.2 mm 5 mps 722 mmHg 88%
    04:00 0°C° 0.2 mm 5 mps 723 mmHg 84%
    05:00 0°C° 0 mm 4 mps 724 mmHg 85%
    06:00 0°C° 0 mm 4 mps 726 mmHg 86%
    07:00 -1°C° 0 mm 4 mps 727 mmHg 86%
    08:00 -1°C° 0.1 mm 4 mps 727 mmHg 87%
    09:00 -1°C° 0.1 mm 4 mps 728 mmHg 89%
    10:00 -1°C° 0.1 mm 4 mps 729 mmHg 90%
    11:00 0°C° 0.1 mm 4 mps 729 mmHg 86%
    12:00 0°C° 0.1 mm 4 mps 729 mmHg 82%
    13:00 +2°C° 0.1 mm 3 mps 730 mmHg 78%
    14:00 +1°C° 0.1 mm 3 mps 729 mmHg 80%
    15:00 +1°C° 0.1 mm 3 mps 729 mmHg 83%
    16:00 +1°C° 0.1 mm 2 mps 729 mmHg 86%
    17:00 -1°C° 0 mm 2 mps 729 mmHg 87%
    18:00 -1°C° 0 mm 2 mps 729 mmHg 89%
    19:00 -2°C° 0 mm 2 mps 729 mmHg 91%
    20:00 -2°C° 0 mm 2 mps 729 mmHg 91%
    21:00 -2°C° 0 mm 2 mps 728 mmHg 92%
    22:00 -2°C° 0 mm 2 mps 728 mmHg 92%
    23:00 -2°C° 0 mm 2 mps 727 mmHg 91%

    Tomorrow, 11 December, Wednesday

    Time Temperature Precipitation Wind Pressure Humidity
    00:00 -2°C° 0 mm 2 mps 727 mmHg 89%
    01:00 -2°C° 0 mm 2 mps 727 mmHg 88%
    02:00 -2°C° 0 mm 2 mps 726 mmHg 87%
    03:00 -2°C° 0 mm 2 mps 725 mmHg 85%
    04:00 -2°C° 0 mm 2 mps 724 mmHg 84%
    05:00 -2°C° 0 mm 2 mps 724 mmHg 83%
    06:00 -2°C° 0 mm 2 mps 723 mmHg 82%
    07:00 -2°C° 0 mm 2 mps 723 mmHg 80%
    08:00 -2°C° 0 mm 2 mps 722 mmHg 78%
    09:00 -1°C° 0 mm 2 mps 722 mmHg 75%
    10:00 -1°C° 0 mm 2 mps 722 mmHg 73%
    11:00 +1°C° 0 mm 2 mps 721 mmHg 69%
    12:00 +1°C° 0 mm 2 mps 721 mmHg 65%
    13:00 +2°C° 0 mm 2 mps 720 mmHg 62%
    14:00 +2°C° 0.1 mm 2 mps 719 mmHg 65%
    15:00 +2°C° 0.1 mm 2 mps 719 mmHg 69%
    16:00 +1°C° 0.1 mm 2 mps 718 mmHg 73%
    17:00 +2°C° 0.1 mm 1 mps 718 mmHg 73%
    18:00 +2°C° 0.1 mm 1 mps 718 mmHg 74%
    19:00 +2°C° 0.1 mm 1 mps 718 mmHg 74%
    20:00 +1°C° 0.3 mm 1 mps 717 mmHg 80%
    21:00 +1°C° 0.3 mm 1 mps 717 mmHg 86%
    22:00 +1°C° 0.3 mm 1 mps 717 mmHg 92%
    23:00 +1°C° 0.3 mm 1 mps 716 mmHg 94%

    Day after tomorrow, 12 December, Thursday

    Time Temperature Precipitation Wind Pressure Humidity
    00:00 +2°C° 0.3 mm 1 mps 716 mmHg 95%
    01:00 +2°C° 0.3 mm 1 mps 716 mmHg 96%
    02:00 +2°C° 0.1 mm 1 mps 716 mmHg 96%
    03:00 +2°C° 0.1 mm 1 mps 716 mmHg 97%
    04:00 +3°C° 0.1 mm 1 mps 715 mmHg 97%
    05:00 +2°C° 0.1 mm 2 mps 716 mmHg 97%
    06:00 +2°C° 0.1 mm 2 mps 716 mmHg 96%
    07:00 +1°C° 0.1 mm 2 mps 716 mmHg 95%
    08:00 +2°C° 0 mm 2 mps 716 mmHg 93%
    09:00 +2°C° 0 mm 2 mps 716 mmHg 91%
    10:00 +2°C° 0 mm 2 mps 716 mmHg 90%
    11:00 +2°C° 0 mm 2 mps 716 mmHg 90%
    12:00 +2°C° 0 mm 2 mps 716 mmHg 90%
    13:00 +2°C° 0 mm 2 mps 716 mmHg 90%
    14:00 +2°C° 0.1 mm 2 mps 715 mmHg 92%
    15:00 +2°C° 0.1 mm 2 mps 715 mmHg 94%
    16:00 +1°C° 0.1 mm 2 mps 715 mmHg 95%
    17:00 +1°C° 0 mm 2 mps 715 mmHg 95%
    18:00 +1°C° 0 mm 2 mps 714 mmHg 95%
    19:00 -1°C° 0 mm 2 mps 714 mmHg 95%
    20:00 -1°C° 0 mm 2 mps 713 mmHg 93%
    21:00 -1°C° 0 mm 3 mps 712 mmHg 92%
    22:00 -1°C° 0 mm 3 mps 712 mmHg 90%
    23:00 -1°C° 0 mm 3 mps 710 mmHg 91%

    13 December, Friday

    Time Temperature Precipitation Wind Pressure Humidity
    00:00 -2°C° 0 mm 3 mps 709 mmHg 92%
    01:00 -4°C° 0 mm 3 mps 708 mmHg 93%
    02:00 -4°C° 0 mm 3 mps 706 mmHg 91%
    03:00 -4°C° 0 mm 3 mps 704 mmHg 89%
    04:00 -4°C° 0 mm 4 mps 703 mmHg 87%
    05:00 -3°C° 0.2 mm 4 mps 702 mmHg 86%
    06:00 -3°C° 0.2 mm 4 mps 701 mmHg 86%
    07:00 -3°C° 0.2 mm 4 mps 700 mmHg 86%
    08:00 -2°C° 0.1 mm 4 mps 700 mmHg 85%
    09:00 -2°C° 0.1 mm 5 mps 700 mmHg 85%
    10:00 -2°C° 0.1 mm 5 mps 700 mmHg 85%
    11:00 -1°C° 0.1 mm 5 mps 700 mmHg 84%
    12:00 -1°C° 0.1 mm 5 mps 700 mmHg 84%
    13:00 -1°C° 0.1 mm 6 mps 700 mmHg 84%
    14:00 0°C° 0 mm 5 mps 700 mmHg 86%
    15:00 0°C° 0 mm 5 mps 701 mmHg 88%
    16:00 0°C° 0 mm 5 mps 701 mmHg 90%
    17:00 0°C° 0.1 mm 5 mps 701 mmHg 90%
    18:00 0°C° 0.1 mm 5 mps 701 mmHg 90%
    19:00 -1°C° 0.1 mm 5 mps 701 mmHg 90%
    20:00 -1°C° 0.2 mm 6 mps 701 mmHg 91%
    21:00 -1°C° 0.2 mm 6 mps 701 mmHg 92%
    22:00 -1°C° 0.2 mm 7 mps 701 mmHg 93%
    23:00 -1°C° 0.3 mm 7 mps 701 mmHg 93%

    14 December, Saturday

    Time Temperature Precipitation Wind Pressure Humidity
    00:00 0°C° 0.3 mm 7 mps 702 mmHg 93%
    01:00 0°C° 0.3 mm 7 mps 702 mmHg 93%
    02:00 0°C° 0.2 mm 7 mps 702 mmHg 93%
    03:00 -1°C° 0.2 mm 7 mps 703 mmHg 93%
    04:00 -1°C° 0.2 mm 7 mps 703 mmHg 93%
    05:00 -1°C° 0.1 mm 6 mps 703 mmHg 92%
    06:00 -1°C° 0.1 mm 6 mps 704 mmHg 90%
    07:00 -1°C° 0.1 mm 6 mps 704 mmHg 89%
    08:00 -1°C° 0.1 mm 6 mps 703 mmHg 90%
    09:00 0°C° 0.1 mm 5 mps 703 mmHg 91%
    10:00 0°C° 0.1 mm 5 mps 703 mmHg 91%
    11:00 +1°C° 1.2 mm 5 mps 703 mmHg 93%
    12:00 +1°C° 1.2 mm 6 mps 703 mmHg 94%
    13:00 +2°C° 1.2 mm 6 mps 703 mmHg 96%
    14:00 +2°C° 0.3 mm 6 mps 704 mmHg 90%
    15:00 0°C° 0.3 mm 7 mps 706 mmHg 85%
    16:00 0°C° 0.3 mm 8 mps 707 mmHg 79%
    17:00 0°C° 0.4 mm 7 mps 708 mmHg 83%
    18:00 -1°C° 0.4 mm 6 mps 708 mmHg 87%
    19:00 0°C° 0.4 mm 5 mps 709 mmHg 91%
    20:00 0°C° 0 mm 5 mps 710 mmHg 89%
    21:00 0°C° 0 mm 5 mps 711 mmHg 88%
    22:00 0°C° 0 mm 5 mps 711 mmHg 86%
    23:00 -1°C° 0.3 mm 6 mps 712 mmHg 84%

    15 December, Sunday

    Time Temperature Precipitation Wind Pressure Humidity
    00:00 -1°C° 0.3 mm 7 mps 713 mmHg 83%
    01:00 0°C° 0.3 mm 7 mps 714 mmHg 81%
    02:00 0°C° 0.1 mm 7 mps 714 mmHg 83%
    03:00 -1°C° 0.1 mm 7 mps 715 mmHg 85%
    04:00 -1°C° 0.1 mm 7 mps 716 mmHg 87%
    05:00 -1°C° 0 mm 6 mps 716 mmHg 87%
    06:00 0°C° 0 mm 5 mps 717 mmHg 87%
    07:00 0°C° 0 mm 4 mps 717 mmHg 87%
    08:00 0°C° 0 mm 4 mps 718 mmHg 87%
    09:00 +1°C° 0 mm 4 mps 718 mmHg 87%
    10:00 +1°C° 0 mm 4 mps 718 mmHg 88%
    11:00 +3°C° 0.2 mm 4 mps 718 mmHg 90%
    12:00 +3°C° 0.2 mm 4 mps 717 mmHg 92%
    13:00 +3°C° 0.2 mm 3 mps 717 mmHg 95%
    14:00 +4°C° 0.2 mm 4 mps 717 mmHg 94%
    15:00 +5°C° 0.2 mm 4 mps 717 mmHg 94%
    16:00 +5°C° 0.2 mm 4 mps 717 mmHg 93%
    17:00 +5°C° 0.1 mm 4 mps 717 mmHg 93%
    18:00 +5°C° 0.1 mm 4 mps 718 mmHg 93%
    19:00 +5°C° 0.1 mm 4 mps 718 mmHg 93%
    20:00 +5°C° 0 mm 3 mps 718 mmHg 94%
    21:00 +5°C° 0 mm 3 mps 718 mmHg 94%
    22:00 +6°C° 0 mm 2 mps 719 mmHg 94%
    23:00 +5°C° 0 mm 2 mps 719 mmHg 94%
    Show more